Content
SEND FEEDBACK

Daily
Averages
Monthly
Summary
Mexico

PRESA VICENTE GUERRERO, TAMAULIPAS


Home > North America > Mexico > Tamaulipas
Elevation: 440 feet     Latitude: 23 57N     Longitude: 098 39W

WEATHER
 
SELECT A DAY
Number of Records: 118,834;   Date Range: 1/1/95 - 8/10/14
 
SHARE

PRINT THIS DATA

[ ← Previous Day ]
WEATHER ALMANAC - JANUARY 23, 2013
[ Next Day → ]
[ °C ]   °F
Weather ElementAverageHighLow
Temperature68.7 °F75.2 °F (12:40 pm)58 °F (11:45 pm)
Dewpoint59.6 °F66 °F (11:50 am)55.4 °F (5:47 pm)
Humidity73.5 %100 % (11:45 pm)53 % (1:45 pm)
Barometer30.29 in30.37 in (11:50 am)30.23 in (3:42 pm)
Wind Speed4.8 mph10.4 mph (6:06 am)
Weather ElementAverage
Visibility5.1 mi
Wind DirectionSSW (194.1 °)

Weather ElementTotal
Precipitation---
Cooling Degree Days1.6 (Base 65)
Growing Degree Days16.6 (Base 50)
Averaged from 21 records on January 23, 2013
WEATHER CONDITIONS BREAKOUT
WIND DIRECTION BREAKOUT
WEATHER BY HOUR - JANUARY 23, 2013
[ °C ]   °F
Local TimeTemperatureDewpointHumidityBarometerVisibilityWind DirectionWind SpeedGust SpeedPrecipitationEventsConditions
6:06 AM62.6 °F60.8 °F94 %30.25 in4.0 miSE (130°)10.4 mphScattered Clouds
6:49 AM64.4 °F60.8 °F88 %30.24 in4.0 miSE (130°)8.1 mphMostly Cloudy
7:42 AM62.6 °F60.8 °F94 %30.27 in4.0 miSW (230°)4.6 mphMostly Cloudy
8:24 AM62.6 °F60.8 °F94 %30.29 in4.0 miNW (310°)4.6 mphOvercast
8:50 AM63.0 °F63.0 °F98 %30.35 in6.0 miNNW (340°)2.2 mphMostly Cloudy
9:40 AM64.4 °F60.8 °F88 %30.33 in4.0 miWest (270°)2.3 mphOvercast
10:44 AM69.8 °F60.8 °F73 %30.34 in4.0 miNW (320°)4.6 mphMostly Cloudy
11:41 AM71.6 °F59.0 °F64 %30.35 in6.0 miSSE (160°)5.8 mphScattered Clouds
11:50 AM71.0 °F66.0 °F78 %30.37 in6.0 miESE (110°)2.2 mphMostly Cloudy
12:40 PM75.2 °F59.0 °F57 %30.28 in6.0 miSSW (200°)5.8 mphMostly Cloudy
1:45 PM75.2 °F57.2 °F53 %30.25 in6.0 miSE (140°)8.1 mphMostly Cloudy
2:48 PM75.2 °F57.2 °F53 %30.32 in5.0 miSouth (170°)9.2 mphScattered Clouds
2:50 PM75.0 °F62.0 °F56 %30.27 in6.0 miCalmMostly Cloudy
3:42 PM75.2 °F57.2 °F53 %30.23 in5.0 miSSE (160°)6.9 mphMostly Cloudy
4:41 PM75.2 °F57.2 °F53 %30.23 in5.0 miSouth (190°)8.1 mphMostly Cloudy
5:47 PM73.4 °F55.4 °F53 %30.25 in6.0 miSSE (150°)4.6 mphScattered Clouds
5:50 PM73.0 °F61.0 °F57 %30.27 in6.0 miCalmPartly Cloudy
7:42 PM68.0 °F57.2 °F68 %30.24 in6.0 miSE (140°)6.9 mphClear
8:45 PM61.0 °F60.0 °F97 %30.29 in4.0 miCalm
8:47 PM66.2 °F57.2 °F73 %30.26 in6.0 miSSE (150°)6.9 mphClear
11:45 PM58.0 °F58.0 °F100 %30.31 in4.0 miCalm
Hourly data recorded from MMCV, located miles away from Presa Vicente Guerrero, Tamaulipas







STORIES FROM OUR PARTNERS